• In Latvia
  • List of Countries
  • For 7 days
  • Water Temperature
  • Satellite Maps
  • Weather Map
  • Weather Widgets
  • user-avatar
    Login

    Hourly Weather Pereni

    Today, 22 August, Wednesday

    Time Temperature Precipitation Wind Pressure Humidity
    00:00 +24°C° 0.1 mm 3 mps 747 mmHg 68%
    01:00 +22°C° 0.1 mm 3 mps 748 mmHg 74%
    02:00 +21°C° 0.1 mm 3 mps 748 mmHg 79%
    03:00 +21°C° 0 mm 3 mps 748 mmHg 81%
    04:00 +20°C° 0 mm 3 mps 748 mmHg 83%
    05:00 +20°C° 0 mm 3 mps 748 mmHg 85%
    06:00 +21°C° 0 mm 3 mps 748 mmHg 78%
    07:00 +22°C° 0 mm 3 mps 749 mmHg 71%
    08:00 +25°C° 0 mm 4 mps 749 mmHg 65%
    09:00 +26°C° 0 mm 4 mps 749 mmHg 58%
    10:00 +28°C° 0 mm 4 mps 749 mmHg 50%
    11:00 +29°C° 0 mm 5 mps 750 mmHg 43%
    12:00 +30°C° 0 mm 4 mps 749 mmHg 41%
    13:00 +30°C° 0 mm 4 mps 749 mmHg 39%
    14:00 +32°C° 0 mm 4 mps 749 mmHg 37%
    15:00 +32°C° 0 mm 4 mps 749 mmHg 38%
    16:00 +30°C° 0 mm 4 mps 749 mmHg 38%
    17:00 +30°C° 0 mm 4 mps 749 mmHg 39%
    18:00 +28°C° 0 mm 4 mps 749 mmHg 43%
    19:00 +26°C° 0 mm 3 mps 749 mmHg 48%
    20:00 +24°C° 0 mm 3 mps 749 mmHg 52%
    21:00 +22°C° 0 mm 3 mps 750 mmHg 55%
    22:00 +21°C° 0 mm 3 mps 750 mmHg 57%
    23:00 +21°C° 0 mm 3 mps 750 mmHg 60%

    Tomorrow, 23 August, Thursday

    Time Temperature Precipitation Wind Pressure Humidity
    00:00 +20°C° 0 mm 3 mps 750 mmHg 61%
    01:00 +20°C° 0 mm 3 mps 750 mmHg 63%
    02:00 +19°C° 0 mm 3 mps 750 mmHg 64%
    03:00 +19°C° 0 mm 2 mps 750 mmHg 64%
    04:00 +18°C° 0 mm 2 mps 750 mmHg 64%
    05:00 +18°C° 0 mm 2 mps 750 mmHg 65%
    06:00 +19°C° 0 mm 2 mps 750 mmHg 60%
    07:00 +21°C° 0 mm 3 mps 750 mmHg 54%
    08:00 +22°C° 0 mm 3 mps 750 mmHg 49%
    09:00 +25°C° 0 mm 3 mps 750 mmHg 45%
    10:00 +27°C° 0 mm 3 mps 750 mmHg 41%
    11:00 +28°C° 0 mm 3 mps 750 mmHg 37%
    12:00 +29°C° 0 mm 3 mps 749 mmHg 35%
    13:00 +30°C° 0 mm 3 mps 749 mmHg 33%
    14:00 +30°C° 0 mm 3 mps 748 mmHg 32%
    15:00 +30°C° 0 mm 3 mps 748 mmHg 31%
    16:00 +30°C° 0 mm 3 mps 748 mmHg 31%
    17:00 +30°C° 0 mm 4 mps 748 mmHg 31%
    18:00 +28°C° 0 mm 3 mps 748 mmHg 33%
    19:00 +26°C° 0 mm 3 mps 748 mmHg 36%
    20:00 +22°C° 0 mm 3 mps 748 mmHg 39%
    21:00 +21°C° 0 mm 3 mps 748 mmHg 40%
    22:00 +21°C° 0 mm 2 mps 748 mmHg 41%
    23:00 +20°C° 0 mm 2 mps 748 mmHg 42%

    Day after tomorrow, 24 August, Friday

    Time Temperature Precipitation Wind Pressure Humidity
    00:00 +19°C° 0 mm 2 mps 748 mmHg 43%
    01:00 +19°C° 0 mm 1 mps 747 mmHg 44%
    02:00 +19°C° 0 mm 1 mps 747 mmHg 44%
    03:00 +18°C° 0 mm 1 mps 747 mmHg 44%
    04:00 +18°C° 0 mm 1 mps 747 mmHg 44%
    05:00 +16°C° 0 mm 1 mps 747 mmHg 44%
    06:00 +19°C° 0 mm 1 mps 747 mmHg 42%
    07:00 +20°C° 0 mm 2 mps 747 mmHg 40%
    08:00 +23°C° 0 mm 2 mps 747 mmHg 37%
    09:00 +25°C° 0 mm 2 mps 747 mmHg 35%
    10:00 +27°C° 0 mm 3 mps 747 mmHg 33%
    11:00 +29°C° 0 mm 3 mps 746 mmHg 31%
    12:00 +29°C° 0 mm 3 mps 746 mmHg 29%
    13:00 +30°C° 0 mm 3 mps 746 mmHg 27%
    14:00 +31°C° 0 mm 3 mps 745 mmHg 25%
    15:00 +31°C° 0 mm 3 mps 745 mmHg 24%
    16:00 +31°C° 0 mm 3 mps 745 mmHg 24%
    17:00 +31°C° 0 mm 3 mps 744 mmHg 24%
    18:00 +28°C° 0 mm 3 mps 744 mmHg 27%
    19:00 +26°C° 0 mm 3 mps 745 mmHg 29%
    20:00 +24°C° 0 mm 2 mps 745 mmHg 32%
    21:00 +23°C° 0 mm 2 mps 744 mmHg 33%
    22:00 +20°C° 0 mm 2 mps 744 mmHg 33%
    23:00 +20°C° 0 mm 1 mps 744 mmHg 34%

    25 August, Saturday

    Time Temperature Precipitation Wind Pressure Humidity
    00:00 +20°C° 0 mm 1 mps 744 mmHg 34%
    01:00 +19°C° 0 mm 1 mps 744 mmHg 35%
    02:00 +19°C° 0 mm 1 mps 744 mmHg 36%
    03:00 +19°C° 0 mm 1 mps 743 mmHg 36%
    04:00 +18°C° 0 mm 1 mps 743 mmHg 37%
    05:00 +16°C° 0 mm 0 mps 743 mmHg 38%
    06:00 +20°C° 0 mm 1 mps 743 mmHg 35%
    07:00 +22°C° 0 mm 1 mps 743 mmHg 32%
    08:00 +25°C° 0 mm 1 mps 744 mmHg 30%
    09:00 +27°C° 0 mm 2 mps 743 mmHg 29%
    10:00 +28°C° 0 mm 3 mps 743 mmHg 28%
    11:00 +30°C° 0 mm 3 mps 743 mmHg 27%
    12:00 +31°C° 0 mm 3 mps 743 mmHg 27%
    13:00 +33°C° 0 mm 4 mps 742 mmHg 26%
    14:00 +34°C° 0 mm 4 mps 742 mmHg 26%
    15:00 +34°C° 0 mm 4 mps 742 mmHg 28%
    16:00 +33°C° 0 mm 3 mps 741 mmHg 29%
    17:00 +33°C° 0 mm 3 mps 741 mmHg 31%
    18:00 +30°C° 0 mm 3 mps 741 mmHg 36%
    19:00 +28°C° 0 mm 3 mps 741 mmHg 42%
    20:00 +25°C° 0 mm 2 mps 741 mmHg 47%
    21:00 +24°C° 0 mm 2 mps 741 mmHg 54%
    22:00 +23°C° 0 mm 2 mps 741 mmHg 61%
    23:00 +21°C° 0 mm 2 mps 741 mmHg 67%

    26 August, Sunday

    Time Temperature Precipitation Wind Pressure Humidity
    00:00 +20°C° 0 mm 2 mps 741 mmHg 72%
    01:00 +20°C° 0 mm 2 mps 741 mmHg 76%
    02:00 +20°C° 0 mm 1 mps 741 mmHg 80%
    03:00 +20°C° 0 mm 1 mps 741 mmHg 82%
    04:00 +20°C° 0 mm 1 mps 741 mmHg 84%
    05:00 +19°C° 0 mm 1 mps 741 mmHg 86%
    06:00 +20°C° 0 mm 2 mps 741 mmHg 78%
    07:00 +23°C° 0 mm 2 mps 741 mmHg 70%
    08:00 +25°C° 0 mm 2 mps 741 mmHg 61%
    09:00 +27°C° 0 mm 2 mps 741 mmHg 54%
    10:00 +29°C° 0 mm 2 mps 741 mmHg 46%
    11:00 +31°C° 0 mm 2 mps 741 mmHg 38%
    12:00 +32°C° 0 mm 2 mps 741 mmHg 35%
    13:00 +34°C° 0 mm 2 mps 740 mmHg 31%
    14:00 +34°C° 0 mm 1 mps 740 mmHg 27%
    15:00 +33°C° 0 mm 1 mps 740 mmHg 27%
    16:00 +33°C° 0 mm 1 mps 740 mmHg 27%
    17:00 +33°C° 0 mm 1 mps 740 mmHg 26%
    18:00 +31°C° 0 mm 1 mps 740 mmHg 30%
    19:00 +29°C° 0 mm 1 mps 740 mmHg 34%
    20:00 +26°C° 0 mm 1 mps 740 mmHg 39%
    21:00 +26°C° 0 mm 1 mps 740 mmHg 42%
    22:00 +25°C° 0 mm 1 mps 740 mmHg 46%
    23:00 +24°C° 0 mm 1 mps 740 mmHg 50%

    27 August, Monday

    Time Temperature Precipitation Wind Pressure Humidity
    00:00 +23°C° 0 mm 1 mps 740 mmHg 52%
    01:00 +23°C° 0 mm 1 mps 740 mmHg 55%
    02:00 +22°C° 0 mm 1 mps 740 mmHg 58%
    03:00 +21°C° 0 mm 1 mps 740 mmHg 61%
    04:00 +21°C° 0 mm 1 mps 741 mmHg 65%
    05:00 +20°C° 0 mm 1 mps 741 mmHg 68%
    06:00 +22°C° 0 mm 1 mps 741 mmHg 64%
    07:00 +23°C° 0 mm 2 mps 741 mmHg 60%
    08:00 +25°C° 0 mm 2 mps 742 mmHg 55%
    09:00 +27°C° 0 mm 2 mps 742 mmHg 50%
    10:00 +29°C° 0 mm 2 mps 742 mmHg 45%
    11:00 +30°C° 0 mm 2 mps 742 mmHg 39%
    12:00 +31°C° 0 mm 2 mps 742 mmHg 38%
    13:00 +31°C° 0 mm 2 mps 742 mmHg 37%
    14:00 +32°C° 0 mm 2 mps 742 mmHg 35%
    15:00 +30°C° 0 mm 3 mps 742 mmHg 41%
    16:00 +29°C° 0 mm 4 mps 742 mmHg 46%
    17:00 +27°C° 0 mm 5 mps 742 mmHg 52%
    18:00 +24°C° 0.5 mm 6 mps 742 mmHg 61%
    19:00 +22°C° 0.5 mm 6 mps 742 mmHg 69%
    20:00 +20°C° 0.5 mm 7 mps 743 mmHg 78%
    21:00 +20°C° 0.5 mm 7 mps 743 mmHg 81%
    22:00 +18°C° 0.5 mm 7 mps 743 mmHg 83%
    23:00 +18°C° 0.5 mm 7 mps 743 mmHg 86%
    Show more